Time,TemperatureF,DewpointF,PressureIn,WindDirection,WindDirectionDegrees,WindSpeedMPH,WindSpeedGustMPH,Humidity,HourlyPrecipIn,Conditions,Clouds,dailyrainin,SolarRadiationWatts/m^2,SoftwareType,DateUTC
2013-07-20 00:01:00,78.9,73.3,30.02,South,188,1.0,1.0,83,0.00,,,0.00,0,WeatherCatV1.20B785,2013-07-20 04:01:00,
2013-07-20 00:06:00,78.9,73.3,30.02,South,188,2.0,2.0,83,0.00,,,0.00,0,WeatherCatV1.20B785,2013-07-20 04:06:00,
2013-07-20 00:11:00,78.8,73.2,30.02,South,188,0.0,2.0,83,0.00,,,0.00,0,WeatherCatV1.20B785,2013-07-20 04:11:00,
2013-07-20 00:16:00,78.7,73.1,30.02,South,188,0.0,1.0,83,0.00,,,0.00,0,WeatherCatV1.20B785,2013-07-20 04:16:00,
2013-07-20 00:21:00,78.5,73.2,30.02,South,188,0.0,2.0,84,0.00,,,0.00,0,WeatherCatV1.20B785,2013-07-20 04:21:00,
2013-07-20 00:26:00,78.3,73.1,30.02,South,188,1.0,2.0,84,0.00,,,0.00,0,WeatherCatV1.20B785,2013-07-20 04:26:00,
2013-07-20 00:31:00,78.2,72.9,30.01,South,188,1.0,2.0,84,0.00,,,0.00,0,WeatherCatV1.20B785,2013-07-20 04:31:00,
2013-07-20 00:36:00,78.1,73.2,30.01,South,188,0.0,2.0,85,0.00,,,0.00,0,WeatherCatV1.20B785,2013-07-20 04:36:00,
2013-07-20 00:41:00,78.0,73.1,30.01,South,188,0.0,2.0,85,0.00,,,0.00,0,WeatherCatV1.20B785,2013-07-20 04:41:00,
2013-07-20 00:46:00,77.9,73.0,30.01,South,188,0.0,2.0,85,0.00,,,0.00,0,WeatherCatV1.20B785,2013-07-20 04:46:00,
2013-07-20 00:51:00,77.8,72.9,30.01,South,188,1.0,1.0,85,0.00,,,0.00,0,WeatherCatV1.20B785,2013-07-20 04:51:00,
2013-07-20 00:56:00,77.7,72.8,30.01,South,187,1.0,3.0,85,0.00,,,0.00,0,WeatherCatV1.20B785,2013-07-20 04:56:00,
2013-07-20 01:01:00,77.6,73.1,30.00,South,186,1.0,3.0,86,0.00,,,0.00,0,WeatherCatV1.20B785,2013-07-20 05:01:00,
2013-07-20 01:06:00,77.6,73.1,30.01,South,184,0.0,5.0,86,0.00,,,0.00,0,WeatherCatV1.20B785,2013-07-20 05:06:00,
2013-07-20 01:11:00,77.5,73.0,30.00,South,180,0.0,2.0,86,0.00,,,0.00,0,WeatherCatV1.20B785,2013-07-20 05:11:00,
2013-07-20 01:16:00,77.4,72.9,30.00,South,186,2.0,2.0,86,0.00,,,0.00,0,WeatherCatV1.20B785,2013-07-20 05:16:00,
2013-07-20 01:21:00,77.3,72.8,30.00,South,170,2.0,3.0,86,0.00,,,0.00,0,WeatherCatV1.20B785,2013-07-20 05:21:00,
2013-07-20 01:26:00,77.3,72.8,30.00,South,178,2.0,3.0,86,0.00,,,0.00,0,WeatherCatV1.20B785,2013-07-20 05:26:00,
2013-07-20 01:31:00,77.2,73.0,30.00,South,175,1.0,3.0,87,0.00,,,0.00,0,WeatherCatV1.20B785,2013-07-20 05:31:00,
2013-07-20 01:36:00,77.0,72.8,30.00,SSW,195,1.0,3.0,87,0.00,,,0.00,0,WeatherCatV1.20B785,2013-07-20 05:36:00,
2013-07-20 01:41:00,77.0,72.8,30.00,South,183,1.0,3.0,87,0.00,,,0.00,0,WeatherCatV1.20B785,2013-07-20 05:41:00,
2013-07-20 01:46:00,76.9,72.7,30.00,South,176,2.0,3.0,87,0.00,,,0.00,0,WeatherCatV1.20B785,2013-07-20 05:46:00,
2013-07-20 01:51:00,76.9,72.7,30.00,South,175,0.0,3.0,87,0.00,,,0.00,0,WeatherCatV1.20B785,2013-07-20 05:51:00,
2013-07-20 01:56:00,76.9,72.7,30.00,SSW,195,1.0,2.0,87,0.00,,,0.00,0,WeatherCatV1.20B785,2013-07-20 05:56:00,
2013-07-20 02:01:00,76.7,72.5,30.00,SSW,192,1.0,1.0,87,0.00,,,0.00,0,WeatherCatV1.20B785,2013-07-20 06:01:00,
2013-07-20 02:06:00,76.7,72.5,30.00,SSW,199,1.0,3.0,87,0.00,,,0.00,0,WeatherCatV1.20B785,2013-07-20 06:06:00,
2013-07-20 02:11:00,76.6,72.4,30.00,South,170,0.0,3.0,87,0.00,,,0.00,0,WeatherCatV1.20B785,2013-07-20 06:11:00,
2013-07-20 02:16:00,76.6,72.4,30.00,South,179,2.0,3.0,87,0.00,,,0.00,0,WeatherCatV1.20B785,2013-07-20 06:16:00,
2013-07-20 02:21:00,76.5,72.7,30.00,SSW,213,0.0,3.0,88,0.00,,,0.00,0,WeatherCatV1.20B785,2013-07-20 06:21:00,
2013-07-20 02:26:00,76.5,72.7,30.00,South,177,1.0,1.0,88,0.00,,,0.00,0,WeatherCatV1.20B785,2013-07-20 06:26:00,
2013-07-20 02:31:00,76.4,72.6,30.00,South,189,0.0,2.0,88,0.00,,,0.00,0,WeatherCatV1.20B785,2013-07-20 06:31:00,
2013-07-20 02:36:00,76.4,72.6,30.00,South,180,0.0,2.0,88,0.00,,,0.00,0,WeatherCatV1.20B785,2013-07-20 06:36:00,
2013-07-20 02:41:00,76.3,72.5,30.00,SSW,201,0.0,3.0,88,0.00,,,0.00,0,WeatherCatV1.20B785,2013-07-20 06:41:00,
2013-07-20 02:46:00,76.3,72.5,29.99,South,184,2.0,2.0,88,0.00,,,0.00,0,WeatherCatV1.20B785,2013-07-20 06:46:00,
2013-07-20 02:51:00,76.2,72.4,30.00,South,179,2.0,3.0,88,0.00,,,0.00,0,WeatherCatV1.20B785,2013-07-20 06:51:00,
2013-07-20 02:56:00,76.1,72.3,30.00,South,179,0.0,2.0,88,0.00,,,0.00,0,WeatherCatV1.20B785,2013-07-20 06:56:00,
2013-07-20 03:01:00,76.1,72.3,30.00,SSW,205,1.0,2.0,88,0.00,,,0.00,0,WeatherCatV1.20B785,2013-07-20 07:01:00,
2013-07-20 03:06:00,76.0,72.5,30.00,South,186,0.0,1.0,89,0.00,,,0.00,0,WeatherCatV1.20B785,2013-07-20 07:06:00,
2013-07-20 03:11:00,75.9,72.4,30.00,South,186,0.0,0.0,89,0.00,,,0.00,0,WeatherCatV1.20B785,2013-07-20 07:11:00,
2013-07-20 03:16:00,75.8,72.3,30.00,WSW,255,0.0,1.0,89,0.00,,,0.00,0,WeatherCatV1.20B785,2013-07-20 07:16:00,
2013-07-20 03:21:00,75.8,72.3,30.00,WSW,242,0.0,0.0,89,0.00,,,0.00,0,WeatherCatV1.20B785,2013-07-20 07:21:00,
2013-07-20 03:26:00,75.6,72.1,30.00,ESE,118,0.0,2.0,89,0.00,,,0.00,0,WeatherCatV1.20B785,2013-07-20 07:26:00,
2013-07-20 03:31:00,75.6,72.4,30.00,SSE,147,0.0,1.0,90,0.00,,,0.00,0,WeatherCatV1.20B785,2013-07-20 07:31:00,
2013-07-20 03:36:00,75.5,72.3,30.00,SSE,167,0.0,2.0,90,0.00,,,0.00,0,WeatherCatV1.20B785,2013-07-20 07:36:00,
2013-07-20 03:41:00,75.5,72.3,30.00,SSE,167,0.0,0.0,90,0.00,,,0.00,0,WeatherCatV1.20B785,2013-07-20 07:41:00,
2013-07-20 03:46:00,75.4,72.2,30.00,SSE,167,0.0,0.0,90,0.00,,,0.00,0,WeatherCatV1.20B785,2013-07-20 07:46:00,
2013-07-20 03:51:00,75.4,72.2,30.00,SSE,167,1.0,1.0,90,0.00,,,0.00,0,WeatherCatV1.20B785,2013-07-20 07:51:00,
2013-07-20 03:56:00,75.3,72.2,30.00,SSE,167,0.0,1.0,90,0.00,,,0.00,0,WeatherCatV1.20B785,2013-07-20 07:56:00,
2013-07-20 04:01:00,75.3,72.2,29.99,SSE,167,0.0,0.0,90,0.00,,,0.00,0,WeatherCatV1.20B785,2013-07-20 08:01:00,
2013-07-20 04:06:00,75.2,72.1,29.99,SSE,167,0.0,1.0,90,0.00,,,0.00,0,WeatherCatV1.20B785,2013-07-20 08:06:00,
2013-07-20 04:11:00,75.2,72.1,30.00,SSE,167,0.0,2.0,90,0.00,,,0.00,0,WeatherCatV1.20B785,2013-07-20 08:11:00,
2013-07-20 04:16:00,75.1,72.3,29.99,SSE,167,0.0,2.0,91,0.00,,,0.00,0,WeatherCatV1.20B785,2013-07-20 08:16:00,
2013-07-20 04:21:00,75.1,72.3,29.99,SSE,167,0.0,1.0,91,0.00,,,0.00,0,WeatherCatV1.20B785,2013-07-20 08:21:00,
2013-07-20 04:26:00,74.9,72.1,29.99,SSE,167,0.0,1.0,91,0.00,,,0.00,0,WeatherCatV1.20B785,2013-07-20 08:26:00,
2013-07-20 04:31:00,74.9,72.1,29.99,SSE,167,0.0,1.0,91,0.00,,,0.00,0,WeatherCatV1.20B785,2013-07-20 08:31:00,
2013-07-20 04:36:00,74.8,72.0,29.99,SSE,167,1.0,1.0,91,0.00,,,0.00,0,WeatherCatV1.20B785,2013-07-20 08:36:00,
2013-07-20 04:41:00,74.7,72.2,29.99,South,174,0.0,3.0,92,0.00,,,0.00,0,WeatherCatV1.20B785,2013-07-20 08:41:00,
2013-07-20 04:46:00,74.6,72.1,29.99,South,174,0.0,0.0,92,0.00,,,0.00,0,WeatherCatV1.20B785,2013-07-20 08:46:00,
2013-07-20 04:51:00,74.5,72.0,29.99,South,174,0.0,2.0,92,0.00,,,0.00,0,WeatherCatV1.20B785,2013-07-20 08:51:00,
2013-07-20 04:56:00,74.4,71.9,29.99,South,174,1.0,2.0,92,0.00,,,0.00,0,WeatherCatV1.20B785,2013-07-20 08:56:00,
2013-07-20 05:01:00,74.4,72.2,29.99,South,174,1.0,2.0,93,0.00,,,0.00,0,WeatherCatV1.20B785,2013-07-20 09:01:00,
2013-07-20 05:06:00,74.3,72.1,29.99,South,174,0.0,1.0,93,0.00,,,0.00,0,WeatherCatV1.20B785,2013-07-20 09:06:00,
2013-07-20 05:11:00,74.2,72.0,29.99,South,174,1.0,2.0,93,0.00,,,0.00,0,WeatherCatV1.20B785,2013-07-20 09:11:00,
2013-07-20 05:16:00,74.1,71.9,29.99,South,174,1.0,1.0,93,0.00,,,0.00,0,WeatherCatV1.20B785,2013-07-20 09:16:00,
2013-07-20 05:21:00,74.0,71.8,29.99,South,174,2.0,2.0,93,0.00,,,0.00,0,WeatherCatV1.20B785,2013-07-20 09:21:00,
2013-07-20 05:26:00,73.9,72.1,29.99,South,174,0.0,1.0,94,0.00,,,0.00,0,WeatherCatV1.20B785,2013-07-20 09:26:00,
2013-07-20 05:31:00,73.9,72.1,29.99,South,174,2.0,2.0,94,0.00,,,0.00,0,WeatherCatV1.20B785,2013-07-20 09:31:00,
2013-07-20 05:36:00,73.8,72.0,29.99,South,174,0.0,0.0,94,0.00,,,0.00,0,WeatherCatV1.20B785,2013-07-20 09:36:00,
2013-07-20 05:41:00,73.7,71.9,29.99,South,174,0.0,1.0,94,0.00,,,0.00,0,WeatherCatV1.20B785,2013-07-20 09:41:00,
2013-07-20 05:46:00,73.7,71.9,29.99,SE,145,0.0,1.0,94,0.00,,,0.00,0,WeatherCatV1.20B785,2013-07-20 09:46:00,
2013-07-20 05:51:00,73.7,71.9,29.99,SSE,159,0.0,0.0,94,0.00,,,0.00,0,WeatherCatV1.20B785,2013-07-20 09:51:00,
2013-07-20 05:56:00,73.7,71.9,30.00,SSE,159,0.0,0.0,94,0.00,,,0.00,0,WeatherCatV1.20B785,2013-07-20 09:56:00,
2013-07-20 06:01:00,73.7,71.9,30.00,SW,222,0.0,1.0,94,0.00,,,0.00,0,WeatherCatV1.20B785,2013-07-20 10:01:00,
2013-07-20 06:06:00,73.6,71.8,30.00,SSW,213,0.0,1.0,94,0.00,,,0.00,0,WeatherCatV1.20B785,2013-07-20 10:06:00,
2013-07-20 06:11:00,73.6,71.8,30.00,SSW,213,0.0,0.0,94,0.00,,,0.00,0,WeatherCatV1.20B785,2013-07-20 10:11:00,
2013-07-20 06:16:00,73.6,71.8,30.00,SSW,213,0.0,0.0,94,0.00,,,0.00,0,WeatherCatV1.20B785,2013-07-20 10:16:00,
2013-07-20 06:21:00,73.5,71.7,30.00,SSW,213,0.0,0.0,94,0.00,,,0.00,5,WeatherCatV1.20B785,2013-07-20 10:21:00,
2013-07-20 06:26:00,73.4,71.6,30.01,SSW,213,0.0,0.0,94,0.00,,,0.00,7,WeatherCatV1.20B785,2013-07-20 10:26:00,
2013-07-20 06:31:00,73.4,71.6,30.01,SSW,213,0.0,0.0,94,0.00,,,0.00,9,WeatherCatV1.20B785,2013-07-20 10:31:00,
2013-07-20 06:36:00,73.5,71.7,30.01,SSW,213,0.0,0.0,94,0.00,,,0.00,14,WeatherCatV1.20B785,2013-07-20 10:36:00,
2013-07-20 06:41:00,73.5,71.7,30.01,SSW,213,0.0,0.0,94,0.00,,,0.00,18,WeatherCatV1.20B785,2013-07-20 10:41:00,
2013-07-20 06:46:00,73.5,71.7,30.01,SSW,213,0.0,1.0,94,0.00,,,0.00,26,WeatherCatV1.20B785,2013-07-20 10:46:00,
2013-07-20 06:51:00,73.5,71.7,30.01,SSW,213,0.0,1.0,94,0.00,,,0.00,33,WeatherCatV1.20B785,2013-07-20 10:51:00,
2013-07-20 06:56:00,73.6,71.8,30.01,SSW,198,0.0,2.0,94,0.00,,,0.00,37,WeatherCatV1.20B785,2013-07-20 10:56:00,
2013-07-20 07:01:00,73.7,71.9,30.01,SSW,198,0.0,2.0,94,0.00,,,0.00,44,WeatherCatV1.20B785,2013-07-20 11:01:00,
2013-07-20 07:06:00,73.8,72.0,30.01,SSW,198,0.0,1.0,94,0.00,,,0.00,44,WeatherCatV1.20B785,2013-07-20 11:06:00,
2013-07-20 07:11:00,73.9,71.7,30.01,SSW,198,1.0,2.0,93,0.00,,,0.00,47,WeatherCatV1.20B785,2013-07-20 11:11:00,
2013-07-20 07:16:00,74.0,71.8,30.01,South,186,0.0,1.0,93,0.00,,,0.00,56,WeatherCatV1.20B785,2013-07-20 11:16:00,
2013-07-20 07:21:00,74.1,71.9,30.01,South,174,1.0,1.0,93,0.00,,,0.00,53,WeatherCatV1.20B785,2013-07-20 11:21:00,
2013-07-20 07:26:00,74.2,72.0,30.01,South,174,0.0,0.0,93,0.00,,,0.00,65,WeatherCatV1.20B785,2013-07-20 11:26:00,
2013-07-20 07:31:00,74.4,72.2,30.01,South,173,0.0,0.0,93,0.00,,,0.00,76,WeatherCatV1.20B785,2013-07-20 11:31:00,
2013-07-20 07:36:00,74.6,72.4,30.01,SW,217,0.0,2.0,93,0.00,,,0.00,54,WeatherCatV1.20B785,2013-07-20 11:36:00,
2013-07-20 07:41:00,74.7,72.5,30.01,South,186,0.0,0.0,93,0.00,,,0.00,53,WeatherCatV1.20B785,2013-07-20 11:41:00,
2013-07-20 07:46:00,74.8,72.3,30.02,South,186,0.0,1.0,92,0.00,,,0.00,42,WeatherCatV1.20B785,2013-07-20 11:46:00,
2013-07-20 07:51:00,74.8,72.3,30.02,WSW,257,0.0,2.0,92,0.00,,,0.00,39,WeatherCatV1.20B785,2013-07-20 11:51:00,
2013-07-20 07:56:00,74.9,72.4,30.02,SSW,204,0.0,2.0,92,0.00,,,0.00,49,WeatherCatV1.20B785,2013-07-20 11:56:00,
2013-07-20 08:01:00,74.9,72.4,30.02,SW,221,1.0,1.0,92,0.00,,,0.00,70,WeatherCatV1.20B785,2013-07-20 12:01:00,
2013-07-20 08:06:00,74.9,72.4,30.02,SW,221,0.0,0.0,92,0.00,,,0.00,77,WeatherCatV1.20B785,2013-07-20 12:06:00,
2013-07-20 08:11:00,75.1,72.6,30.02,SSW,209,0.0,2.0,92,0.00,,,0.00,67,WeatherCatV1.20B785,2013-07-20 12:11:00,
2013-07-20 08:16:00,75.3,72.5,30.02,NE,39,2.0,2.0,91,0.00,,,0.00,88,WeatherCatV1.20B785,2013-07-20 12:16:00,
2013-07-20 08:21:00,75.4,72.6,30.02,SSW,199,1.0,1.0,91,0.00,,,0.00,88,WeatherCatV1.20B785,2013-07-20 12:21:00,
2013-07-20 08:26:00,75.6,72.8,30.02,South,189,1.0,1.0,91,0.00,,,0.00,93,WeatherCatV1.20B785,2013-07-20 12:26:00,
2013-07-20 08:31:00,75.6,72.8,30.02,South,180,0.0,3.0,91,0.00,,,0.00,123,WeatherCatV1.20B785,2013-07-20 12:31:00,
2013-07-20 08:36:00,75.8,72.7,30.02,SSW,207,0.0,2.0,90,0.00,,,0.00,155,WeatherCatV1.20B785,2013-07-20 12:36:00,
2013-07-20 08:41:00,76.0,72.8,30.01,SW,234,0.0,4.0,90,0.00,,,0.00,162,WeatherCatV1.20B785,2013-07-20 12:41:00,
2013-07-20 08:46:00,76.3,73.1,30.02,SSW,197,0.0,1.0,90,0.00,,,0.00,144,WeatherCatV1.20B785,2013-07-20 12:46:00,
2013-07-20 08:51:00,76.4,73.2,30.02,SW,223,0.0,0.0,90,0.00,,,0.00,116,WeatherCatV1.20B785,2013-07-20 12:51:00,
2013-07-20 08:56:00,76.3,72.8,30.02,SW,218,2.0,3.0,89,0.00,,,0.00,123,WeatherCatV1.20B785,2013-07-20 12:56:00,
2013-07-20 09:01:00,76.1,72.9,30.02,SSW,194,1.0,7.0,90,0.00,,,0.00,148,WeatherCatV1.20B785,2013-07-20 13:01:00,
2013-07-20 09:06:00,76.2,73.0,30.02,SSW,212,1.0,2.0,90,0.00,,,0.00,167,WeatherCatV1.20B785,2013-07-20 13:06:00,
2013-07-20 09:11:00,76.4,73.2,30.02,WSW,240,0.0,1.0,90,0.00,,,0.00,176,WeatherCatV1.20B785,2013-07-20 13:11:00,
2013-07-20 09:16:00,76.6,73.1,30.02,SSW,192,1.0,2.0,89,0.00,,,0.00,174,WeatherCatV1.20B785,2013-07-20 13:16:00,
2013-07-20 09:21:00,76.6,73.1,30.02,South,176,2.0,3.0,89,0.00,,,0.00,207,WeatherCatV1.20B785,2013-07-20 13:21:00,
2013-07-20 09:26:00,77.0,73.2,30.02,WSW,251,0.0,1.0,88,0.00,,,0.00,260,WeatherCatV1.20B785,2013-07-20 13:26:00,
2013-07-20 09:31:00,77.5,73.7,30.02,West,270,0.0,1.0,88,0.00,,,0.00,260,WeatherCatV1.20B785,2013-07-20 13:31:00,
2013-07-20 09:36:00,77.7,73.5,30.02,South,182,1.0,2.0,87,0.00,,,0.00,260,WeatherCatV1.20B785,2013-07-20 13:36:00,
2013-07-20 09:41:00,77.7,73.5,30.02,SSE,160,0.0,1.0,87,0.00,,,0.00,213,WeatherCatV1.20B785,2013-07-20 13:41:00,
2013-07-20 09:46:00,77.8,73.3,30.02,South,187,2.0,3.0,86,0.00,,,0.00,250,WeatherCatV1.20B785,2013-07-20 13:46:00,
2013-07-20 09:51:00,77.8,73.6,30.02,West,274,0.0,3.0,87,0.00,,,0.00,336,WeatherCatV1.20B785,2013-07-20 13:51:00,
2013-07-20 09:56:00,78.4,73.5,30.02,South,191,0.0,2.0,85,0.00,,,0.00,149,WeatherCatV1.20B785,2013-07-20 13:56:00,
2013-07-20 10:01:00,78.1,73.2,30.02,SSW,197,1.0,1.0,85,0.00,,,0.00,309,WeatherCatV1.20B785,2013-07-20 14:01:00,
2013-07-20 10:06:00,78.4,73.8,30.02,WNW,303,0.0,2.0,86,0.00,,,0.00,223,WeatherCatV1.20B785,2013-07-20 14:06:00,
2013-07-20 10:11:00,78.4,73.5,30.02,SSW,200,0.0,0.0,85,0.00,,,0.00,183,WeatherCatV1.20B785,2013-07-20 14:11:00,
2013-07-20 10:16:00,78.4,73.5,30.02,SSW,193,1.0,2.0,85,0.00,,,0.00,272,WeatherCatV1.20B785,2013-07-20 14:16:00,
2013-07-20 10:21:00,78.6,73.7,30.03,SSW,206,2.0,2.0,85,0.00,,,0.00,213,WeatherCatV1.20B785,2013-07-20 14:21:00,
2013-07-20 10:26:00,78.7,73.4,30.03,SSW,212,0.0,2.0,84,0.00,,,0.00,290,WeatherCatV1.20B785,2013-07-20 14:26:00,
2013-07-20 10:31:00,79.2,74.3,30.03,NE,41,0.0,2.0,85,0.00,,,0.00,241,WeatherCatV1.20B785,2013-07-20 14:31:00,
2013-07-20 10:36:00,79.3,74.0,30.03,SSE,157,0.0,4.0,84,0.00,,,0.00,431,WeatherCatV1.20B785,2013-07-20 14:36:00,
2013-07-20 10:41:00,80.0,74.4,30.02,South,186,2.0,3.0,83,0.00,,,0.00,431,WeatherCatV1.20B785,2013-07-20 14:41:00,
2013-07-20 10:46:00,80.1,74.4,30.03,WNW,291,0.0,2.0,83,0.00,,,0.00,338,WeatherCatV1.20B785,2013-07-20 14:46:00,
2013-07-20 10:51:00,80.4,74.4,30.02,South,188,1.0,6.0,82,0.00,,,0.00,438,WeatherCatV1.20B785,2013-07-20 14:51:00,
2013-07-20 10:56:00,81.1,74.7,30.02,SSE,155,1.0,3.0,81,0.00,,,0.00,870,WeatherCatV1.20B785,2013-07-20 14:56:00,
2013-07-20 11:01:00,81.4,75.0,30.02,NE,35,0.0,3.0,81,0.00,,,0.00,538,WeatherCatV1.20B785,2013-07-20 15:01:00,
2013-07-20 11:06:00,81.5,74.7,30.02,SSW,200,2.0,2.0,80,0.00,,,0.00,555,WeatherCatV1.20B785,2013-07-20 15:06:00,
2013-07-20 11:11:00,81.6,74.4,30.02,NW,324,1.0,1.0,79,0.00,,,0.00,403,WeatherCatV1.20B785,2013-07-20 15:11:00,
2013-07-20 11:16:00,82.1,74.9,30.02,South,191,1.0,6.0,79,0.00,,,0.00,598,WeatherCatV1.20B785,2013-07-20 15:16:00,
2013-07-20 11:21:00,82.5,74.9,30.02,SSW,196,0.0,3.0,78,0.00,,,0.00,640,WeatherCatV1.20B785,2013-07-20 15:21:00,
2013-07-20 11:26:00,82.6,74.6,30.02,SSW,211,2.0,4.0,77,0.00,,,0.00,591,WeatherCatV1.20B785,2013-07-20 15:26:00,
2013-07-20 11:31:00,82.3,73.9,30.02,SSW,204,1.0,3.0,76,0.00,,,0.00,406,WeatherCatV1.20B785,2013-07-20 15:31:00,
2013-07-20 11:36:00,82.5,74.5,30.02,WSW,251,3.0,3.0,77,0.00,,,0.00,881,WeatherCatV1.20B785,2013-07-20 15:36:00,
2013-07-20 11:41:00,83.0,74.6,30.02,SSE,168,1.0,3.0,76,0.00,,,0.00,673,WeatherCatV1.20B785,2013-07-20 15:41:00,
2013-07-20 11:46:00,83.3,75.3,30.02,NW,311,3.0,3.0,77,0.00,,,0.00,925,WeatherCatV1.20B785,2013-07-20 15:46:00,
2013-07-20 11:51:00,83.7,75.3,30.01,West,264,1.0,2.0,76,0.00,,,0.00,782,WeatherCatV1.20B785,2013-07-20 15:51:00,
2013-07-20 11:56:00,84.7,76.3,30.01,SSW,201,1.0,2.0,76,0.00,,,0.00,1021,WeatherCatV1.20B785,2013-07-20 15:56:00,
2013-07-20 12:01:00,84.4,75.2,30.01,SW,217,2.0,3.0,74,0.00,,,0.00,979,WeatherCatV1.20B785,2013-07-20 16:01:00,
2013-07-20 12:06:00,85.2,75.5,30.01,NW,316,0.0,2.0,73,0.00,,,0.00,404,WeatherCatV1.20B785,2013-07-20 16:06:00,
2013-07-20 12:11:00,85.4,75.3,30.02,West,268,1.0,5.0,72,0.00,,,0.00,359,WeatherCatV1.20B785,2013-07-20 16:11:00,
2013-07-20 12:16:00,85.0,75.3,30.01,SSW,208,1.0,2.0,73,0.00,,,0.00,387,WeatherCatV1.20B785,2013-07-20 16:16:00,
2013-07-20 12:21:00,84.7,75.5,30.01,SSE,160,2.0,3.0,74,0.00,,,0.00,926,WeatherCatV1.20B785,2013-07-20 16:21:00,
2013-07-20 12:26:00,85.0,75.8,30.01,South,191,1.0,3.0,74,0.00,,,0.00,949,WeatherCatV1.20B785,2013-07-20 16:26:00,
2013-07-20 12:31:00,85.2,75.1,30.00,SSW,209,2.0,3.0,72,0.00,,,0.00,916,WeatherCatV1.20B785,2013-07-20 16:31:00,
2013-07-20 12:36:00,85.8,74.8,30.00,South,182,0.0,3.0,70,0.00,,,0.00,925,WeatherCatV1.20B785,2013-07-20 16:36:00,
2013-07-20 12:41:00,85.0,75.3,30.00,South,182,0.0,1.0,73,0.00,,,0.00,364,WeatherCatV1.20B785,2013-07-20 16:41:00,
2013-07-20 12:46:00,86.1,76.4,29.99,West,276,0.0,1.0,73,0.00,,,0.00,944,WeatherCatV1.20B785,2013-07-20 16:46:00,
2013-07-20 12:51:00,85.7,74.8,29.99,SW,222,0.0,2.0,70,0.00,,,0.00,963,WeatherCatV1.20B785,2013-07-20 16:51:00,
2013-07-20 12:56:00,85.2,75.1,29.99,South,176,0.0,2.0,72,0.00,,,0.00,967,WeatherCatV1.20B785,2013-07-20 16:56:00,
2013-07-20 13:01:00,86.5,75.5,29.99,SSE,166,0.0,2.0,70,0.00,,,0.00,921,WeatherCatV1.20B785,2013-07-20 17:01:00,
2013-07-20 13:06:00,86.0,75.9,29.98,WNW,286,1.0,5.0,72,0.00,,,0.00,923,WeatherCatV1.20B785,2013-07-20 17:06:00,
2013-07-20 13:11:00,87.2,75.3,29.98,SW,234,1.0,3.0,68,0.00,,,0.00,350,WeatherCatV1.20B785,2013-07-20 17:11:00,
2013-07-20 13:16:00,85.8,75.3,29.99,SSW,203,1.0,2.0,71,0.00,,,0.00,1046,WeatherCatV1.20B785,2013-07-20 17:16:00,
2013-07-20 13:21:00,85.9,75.4,29.99,West,281,1.0,1.0,71,0.00,,,0.00,1018,WeatherCatV1.20B785,2013-07-20 17:21:00,
2013-07-20 13:26:00,86.3,75.3,29.99,SSW,210,0.0,2.0,70,0.00,,,0.00,371,WeatherCatV1.20B785,2013-07-20 17:26:00,
2013-07-20 13:31:00,86.4,75.4,29.99,SW,220,2.0,3.0,70,0.00,,,0.00,315,WeatherCatV1.20B785,2013-07-20 17:31:00,
2013-07-20 13:36:00,86.0,74.6,29.99,South,191,3.0,3.0,69,0.00,,,0.00,360,WeatherCatV1.20B785,2013-07-20 17:36:00,
2013-07-20 13:41:00,85.2,75.1,29.98,South,169,1.0,2.0,72,0.00,,,0.00,301,WeatherCatV1.20B785,2013-07-20 17:41:00,
2013-07-20 13:46:00,86.2,76.1,29.98,South,186,2.0,3.0,72,0.00,,,0.00,1007,WeatherCatV1.20B785,2013-07-20 17:46:00,
2013-07-20 13:51:00,86.8,75.4,29.98,SSW,200,0.0,2.0,69,0.00,,,0.00,986,WeatherCatV1.20B785,2013-07-20 17:51:00,
2013-07-20 13:56:00,87.5,75.2,29.98,SE,139,1.0,1.0,67,0.00,,,0.00,991,WeatherCatV1.20B785,2013-07-20 17:56:00,
2013-07-20 14:01:00,86.5,75.9,29.97,SW,230,1.0,2.0,71,0.00,,,0.00,311,WeatherCatV1.20B785,2013-07-20 18:01:00,
2013-07-20 14:06:00,86.9,76.8,29.97,SW,220,1.0,2.0,72,0.00,,,0.00,401,WeatherCatV1.20B785,2013-07-20 18:06:00,
2013-07-20 14:11:00,87.2,76.2,29.97,South,176,0.0,3.0,70,0.00,,,0.00,339,WeatherCatV1.20B785,2013-07-20 18:11:00,
2013-07-20 14:16:00,86.1,75.6,29.97,South,170,3.0,3.0,71,0.00,,,0.00,264,WeatherCatV1.20B785,2013-07-20 18:16:00,
2013-07-20 14:21:00,85.9,75.8,29.96,South,171,0.0,0.0,72,0.00,,,0.00,364,WeatherCatV1.20B785,2013-07-20 18:21:00,
2013-07-20 14:26:00,86.3,76.2,29.96,WSW,247,3.0,5.0,72,0.00,,,0.00,1044,WeatherCatV1.20B785,2013-07-20 18:26:00,
2013-07-20 14:31:00,87.6,74.8,29.95,West,273,0.0,3.0,66,0.00,,,0.00,951,WeatherCatV1.20B785,2013-07-20 18:31:00,
2013-07-20 14:36:00,87.3,75.8,29.95,SSW,196,1.0,3.0,69,0.00,,,0.00,1000,WeatherCatV1.20B785,2013-07-20 18:36:00,
2013-07-20 14:41:00,86.8,75.8,29.95,South,188,1.0,3.0,70,0.00,,,0.00,1007,WeatherCatV1.20B785,2013-07-20 18:41:00,
2013-07-20 14:46:00,87.4,76.4,29.95,WNW,303,1.0,2.0,70,0.00,,,0.00,935,WeatherCatV1.20B785,2013-07-20 18:46:00,
2013-07-20 14:51:00,88.6,76.2,29.95,SSW,199,0.0,3.0,67,0.00,,,0.00,376,WeatherCatV1.20B785,2013-07-20 18:51:00,
2013-07-20 14:56:00,88.8,77.3,29.95,SE,125,1.0,3.0,69,0.00,,,0.00,930,WeatherCatV1.20B785,2013-07-20 18:56:00,
2013-07-20 15:01:00,88.6,76.2,29.95,SSW,196,1.0,2.0,67,0.00,,,0.00,246,WeatherCatV1.20B785,2013-07-20 19:01:00,
2013-07-20 15:06:00,87.3,75.8,29.95,SSW,193,0.0,1.0,69,0.00,,,0.00,188,WeatherCatV1.20B785,2013-07-20 19:06:00,
2013-07-20 15:11:00,85.7,75.6,29.95,South,191,0.0,2.0,72,0.00,,,0.00,225,WeatherCatV1.20B785,2013-07-20 19:11:00,
2013-07-20 15:16:00,85.2,75.9,29.95,South,191,2.0,3.0,74,0.00,,,0.00,160,WeatherCatV1.20B785,2013-07-20 19:16:00,
2013-07-20 15:21:00,85.0,75.3,29.95,South,191,1.0,1.0,73,0.00,,,0.00,151,WeatherCatV1.20B785,2013-07-20 19:21:00,
2013-07-20 15:26:00,84.6,75.8,29.94,South,191,0.0,0.0,75,0.00,,,0.00,84,WeatherCatV1.20B785,2013-07-20 19:26:00,
2013-07-20 15:31:00,84.9,75.2,29.94,West,260,0.0,4.0,73,0.00,,,0.00,30,WeatherCatV1.20B785,2013-07-20 19:31:00,
2013-07-20 15:36:00,84.1,72.8,29.94,WNW,294,4.0,6.0,69,0.00,,,0.00,21,WeatherCatV1.20B785,2013-07-20 19:36:00,
2013-07-20 15:42:00,82.7,71.9,29.95,WSW,245,1.0,3.0,70,0.00,,,0.00,26,WeatherCatV1.20B785,2013-07-20 19:42:00,
2013-07-20 15:47:00,81.4,71.5,29.95,West,276,0.0,0.0,72,0.00,,,0.00,25,WeatherCatV1.20B785,2013-07-20 19:47:00,
2013-07-20 15:52:00,80.0,71.3,29.96,SSE,153,2.0,3.0,75,0.00,,,0.01,28,WeatherCatV1.20B785,2013-07-20 19:52:00,
2013-07-20 15:57:00,77.4,71.5,29.95,South,171,1.0,3.0,82,0.27,,,0.04,32,WeatherCatV1.20B785,2013-07-20 19:57:00,
2013-07-20 16:02:00,75.1,71.3,29.96,South,170,0.0,1.0,88,0.11,,,0.04,67,WeatherCatV1.20B785,2013-07-20 20:02:00,
2013-07-20 16:07:00,74.4,71.6,29.96,South,171,1.0,2.0,91,0.06,,,0.04,79,WeatherCatV1.20B785,2013-07-20 20:07:00,
2013-07-20 16:11:00,74.1,71.9,29.95,South,171,0.0,1.0,93,0.04,,,0.04,79,WeatherCatV1.20B785,2013-07-20 20:11:00,
2013-07-20 16:16:00,74.3,72.4,29.95,South,171,0.0,1.0,94,0.00,,,0.04,70,WeatherCatV1.20B785,2013-07-20 20:16:00,
2013-07-20 16:21:00,74.2,72.4,29.95,South,171,0.0,2.0,94,0.00,,,0.04,70,WeatherCatV1.20B785,2013-07-20 20:21:00,
2013-07-20 16:26:00,74.2,72.4,29.95,South,171,0.0,0.0,94,0.00,,,0.04,74,WeatherCatV1.20B785,2013-07-20 20:26:00,
2013-07-20 16:31:00,74.5,72.7,29.95,West,264,0.0,0.0,94,0.00,,,0.04,79,WeatherCatV1.20B785,2013-07-20 20:31:00,
2013-07-20 16:36:00,74.2,72.4,29.96,WSW,258,0.0,0.0,94,0.00,,,0.04,88,WeatherCatV1.20B785,2013-07-20 20:36:00,
2013-07-20 16:42:00,74.0,71.8,29.95,WSW,258,1.0,2.0,93,0.00,,,0.04,98,WeatherCatV1.20B785,2013-07-20 20:42:00,
2013-07-20 16:47:00,73.8,72.3,29.95,WSW,258,1.0,1.0,95,0.00,,,0.04,116,WeatherCatV1.20B785,2013-07-20 20:47:00,
2013-07-20 16:52:00,74.0,72.5,29.95,WSW,258,0.0,0.0,95,0.00,,,0.04,132,WeatherCatV1.20B785,2013-07-20 20:52:00,
2013-07-20 16:57:00,74.4,72.9,29.94,WSW,258,0.0,0.0,95,0.00,,,0.04,142,WeatherCatV1.20B785,2013-07-20 20:57:00,
2013-07-20 17:02:00,74.7,73.2,29.94,WSW,258,0.0,0.0,95,0.00,,,0.04,155,WeatherCatV1.20B785,2013-07-20 21:02:00,
2013-07-20 17:07:00,74.9,73.4,29.94,WSW,258,0.0,0.0,95,0.00,,,0.04,167,WeatherCatV1.20B785,2013-07-20 21:07:00,
2013-07-20 17:12:00,75.3,73.8,29.94,WSW,258,0.0,0.0,95,0.00,,,0.04,185,WeatherCatV1.20B785,2013-07-20 21:12:00,
2013-07-20 17:17:00,76.2,74.7,29.94,West,280,0.0,2.0,95,0.00,,,0.04,200,WeatherCatV1.20B785,2013-07-20 21:17:00,
2013-07-20 17:22:00,77.1,74.9,29.94,WNW,297,1.0,1.0,93,0.00,,,0.04,206,WeatherCatV1.20B785,2013-07-20 21:22:00,
2013-07-20 17:27:00,77.7,75.2,29.94,WNW,297,0.0,0.0,92,0.00,,,0.04,207,WeatherCatV1.20B785,2013-07-20 21:27:00,
2013-07-20 17:32:00,77.8,74.9,29.93,WNW,297,0.0,0.0,91,0.00,,,0.04,204,WeatherCatV1.20B785,2013-07-20 21:32:00,
2013-07-20 17:37:00,77.7,74.8,29.94,WNW,297,0.0,0.0,91,0.00,,,0.04,200,WeatherCatV1.20B785,2013-07-20 21:37:00,
2013-07-20 17:42:00,77.8,75.6,29.94,WNW,297,0.0,0.0,93,0.00,,,0.04,193,WeatherCatV1.20B785,2013-07-20 21:42:00,
2013-07-20 17:47:00,77.6,75.1,29.94,WNW,297,0.0,0.0,92,0.00,,,0.04,185,WeatherCatV1.20B785,2013-07-20 21:47:00,
2013-07-20 17:52:00,77.8,75.6,29.94,WNW,297,0.0,0.0,93,0.00,,,0.04,171,WeatherCatV1.20B785,2013-07-20 21:52:00,
2013-07-20 17:57:00,78.1,75.2,29.94,WNW,297,0.0,0.0,91,0.00,,,0.04,165,WeatherCatV1.20B785,2013-07-20 21:57:00,
2013-07-20 18:02:00,78.2,75.7,29.94,WNW,297,0.0,0.0,92,0.00,,,0.04,156,WeatherCatV1.20B785,2013-07-20 22:02:00,
2013-07-20 18:07:00,78.0,75.5,29.94,WNW,297,0.0,0.0,92,0.00,,,0.04,134,WeatherCatV1.20B785,2013-07-20 22:07:00,
2013-07-20 18:12:00,77.9,75.4,29.94,WNW,297,0.0,0.0,92,0.00,,,0.04,134,WeatherCatV1.20B785,2013-07-20 22:12:00,
2013-07-20 18:17:00,77.8,74.9,29.94,South,190,0.0,0.0,91,0.00,,,0.04,116,WeatherCatV1.20B785,2013-07-20 22:17:00,
2013-07-20 18:22:00,78.0,75.2,29.93,West,264,0.0,3.0,91,0.00,,,0.04,114,WeatherCatV1.20B785,2013-07-20 22:22:00,
2013-07-20 18:27:00,77.9,75.4,29.93,West,265,0.0,0.0,92,0.00,,,0.04,128,WeatherCatV1.20B785,2013-07-20 22:27:00,
2013-07-20 18:32:00,77.7,75.2,29.93,West,264,0.0,0.0,92,0.00,,,0.04,118,WeatherCatV1.20B785,2013-07-20 22:32:00,
2013-07-20 18:37:00,77.7,75.2,29.93,West,264,0.0,0.0,92,0.00,,,0.04,111,WeatherCatV1.20B785,2013-07-20 22:37:00,
2013-07-20 18:42:00,77.7,75.2,29.93,West,265,0.0,0.0,92,0.00,,,0.04,111,WeatherCatV1.20B785,2013-07-20 22:42:00,
2013-07-20 18:47:00,77.8,75.3,29.93,West,264,0.0,0.0,92,0.00,,,0.04,105,WeatherCatV1.20B785,2013-07-20 22:47:00,
2013-07-20 18:52:00,77.7,75.2,29.92,West,264,1.0,1.0,92,0.00,,,0.04,100,WeatherCatV1.20B785,2013-07-20 22:52:00,
2013-07-20 18:57:00,77.8,75.3,29.93,WSW,243,0.0,1.0,92,0.00,,,0.04,100,WeatherCatV1.20B785,2013-07-20 22:57:00,
2013-07-20 19:02:00,77.9,75.1,29.93,WSW,243,0.0,0.0,91,0.00,,,0.04,100,WeatherCatV1.20B785,2013-07-20 23:02:00,
2013-07-20 19:07:00,77.8,74.9,29.94,WSW,243,0.0,2.0,91,0.00,,,0.04,97,WeatherCatV1.20B785,2013-07-20 23:07:00,
2013-07-20 19:12:00,77.6,74.8,29.95,SW,228,0.0,0.0,91,0.00,,,0.04,97,WeatherCatV1.20B785,2013-07-20 23:12:00,
2013-07-20 19:17:00,77.7,75.2,29.95,SW,228,0.0,0.0,92,0.00,,,0.04,102,WeatherCatV1.20B785,2013-07-20 23:17:00,
2013-07-20 19:22:00,77.7,74.8,29.95,NW,318,0.0,0.0,91,0.00,,,0.04,100,WeatherCatV1.20B785,2013-07-20 23:22:00,
2013-07-20 19:27:00,77.6,74.8,29.95,NW,318,0.0,0.0,91,0.00,,,0.04,77,WeatherCatV1.20B785,2013-07-20 23:27:00,
2013-07-20 19:32:00,77.5,74.7,29.95,NW,318,0.0,0.0,91,0.00,,,0.04,60,WeatherCatV1.20B785,2013-07-20 23:32:00,
2013-07-20 19:37:00,77.3,74.5,29.95,NW,318,0.0,0.0,91,0.00,,,0.04,47,WeatherCatV1.20B785,2013-07-20 23:37:00,
2013-07-20 19:42:00,77.0,74.5,29.96,NW,318,0.0,0.0,92,0.00,,,0.04,40,WeatherCatV1.20B785,2013-07-20 23:42:00,
2013-07-20 19:47:00,76.9,74.7,29.96,NW,316,0.0,2.0,93,0.00,,,0.04,35,WeatherCatV1.20B785,2013-07-20 23:47:00,
2013-07-20 19:52:00,76.9,74.7,29.96,NW,316,0.0,0.0,93,0.00,,,0.04,30,WeatherCatV1.20B785,2013-07-20 23:52:00,
2013-07-20 19:57:00,76.8,74.6,29.96,NW,316,0.0,0.0,93,0.00,,,0.04,25,WeatherCatV1.20B785,2013-07-20 23:57:00,
2013-07-20 20:01:00,76.7,74.5,29.96,NW,316,0.0,0.0,93,0.00,,,0.04,21,WeatherCatV1.20B785,2013-07-21 00:01:00,
2013-07-20 20:06:00,76.7,74.5,29.96,NW,316,0.0,0.0,93,0.00,,,0.04,18,WeatherCatV1.20B785,2013-07-21 00:06:00,
2013-07-20 20:11:00,76.6,74.4,29.96,NW,316,0.0,0.0,93,0.00,,,0.04,12,WeatherCatV1.20B785,2013-07-21 00:11:00,
2013-07-20 20:16:00,76.6,74.7,29.96,NW,316,0.0,0.0,94,0.00,,,0.04,9,WeatherCatV1.20B785,2013-07-21 00:16:00,
2013-07-20 20:21:00,76.3,74.4,29.96,NW,316,0.0,0.0,94,0.00,,,0.04,7,WeatherCatV1.20B785,2013-07-21 00:21:00,
2013-07-20 20:26:00,76.1,74.2,29.96,NW,316,0.0,0.0,94,0.00,,,0.04,0,WeatherCatV1.20B785,2013-07-21 00:26:00,
2013-07-20 20:31:00,76.0,74.5,29.96,NW,316,0.0,0.0,95,0.00,,,0.04,0,WeatherCatV1.20B785,2013-07-21 00:31:00,
2013-07-20 20:36:00,76.0,74.8,29.96,NW,316,0.0,0.0,96,0.00,,,0.04,0,WeatherCatV1.20B785,2013-07-21 00:36:00,
2013-07-20 20:41:00,75.9,74.7,29.96,NW,316,0.0,0.0,96,0.00,,,0.04,0,WeatherCatV1.20B785,2013-07-21 00:41:00,
2013-07-20 20:46:00,75.8,74.6,29.96,NW,316,0.0,0.0,96,0.00,,,0.04,0,WeatherCatV1.20B785,2013-07-21 00:46:00,
2013-07-20 20:51:00,75.7,74.2,29.96,NW,316,0.0,0.0,95,0.00,,,0.04,0,WeatherCatV1.20B785,2013-07-21 00:51:00,
2013-07-20 20:56:00,75.7,74.2,29.96,NW,316,0.0,0.0,95,0.00,,,0.04,0,WeatherCatV1.20B785,2013-07-21 00:56:00,
2013-07-20 21:01:00,75.6,74.1,29.97,NW,316,0.0,0.0,95,0.00,,,0.04,0,WeatherCatV1.20B785,2013-07-21 01:01:00,
2013-07-20 21:06:00,75.5,73.6,29.97,NW,316,0.0,0.0,94,0.00,,,0.04,0,WeatherCatV1.20B785,2013-07-21 01:06:00,
2013-07-20 21:11:00,75.3,73.8,29.97,NW,316,0.0,0.0,95,0.00,,,0.04,0,WeatherCatV1.20B785,2013-07-21 01:11:00,
2013-07-20 21:16:00,75.2,73.7,29.97,NW,316,0.0,0.0,95,0.00,,,0.04,0,WeatherCatV1.20B785,2013-07-21 01:16:00,
2013-07-20 21:21:00,75.2,73.7,29.97,NW,304,0.0,3.0,95,0.00,,,0.04,0,WeatherCatV1.20B785,2013-07-21 01:21:00,
2013-07-20 21:26:00,75.3,73.8,29.97,West,267,0.0,1.0,95,0.00,,,0.04,0,WeatherCatV1.20B785,2013-07-21 01:26:00,
2013-07-20 21:31:00,75.3,73.8,29.98,West,267,0.0,0.0,95,0.00,,,0.04,0,WeatherCatV1.20B785,2013-07-21 01:31:00,
2013-07-20 21:36:00,75.2,74.0,29.98,West,267,0.0,0.0,96,0.00,,,0.04,0,WeatherCatV1.20B785,2013-07-21 01:36:00,
2013-07-20 21:41:00,75.1,73.9,29.98,West,267,0.0,0.0,96,0.00,,,0.04,0,WeatherCatV1.20B785,2013-07-21 01:41:00,
2013-07-20 21:46:00,75.0,73.8,29.98,West,267,0.0,0.0,96,0.00,,,0.04,0,WeatherCatV1.20B785,2013-07-21 01:46:00,
2013-07-20 21:51:00,74.8,73.6,29.99,West,267,0.0,0.0,96,0.00,,,0.04,0,WeatherCatV1.20B785,2013-07-21 01:51:00,
2013-07-20 21:56:00,74.8,73.6,29.99,West,267,0.0,0.0,96,0.00,,,0.04,0,WeatherCatV1.20B785,2013-07-21 01:56:00,
2013-07-20 22:01:00,74.7,73.5,29.99,West,267,0.0,0.0,96,0.00,,,0.04,0,WeatherCatV1.20B785,2013-07-21 02:01:00,
2013-07-20 22:06:00,74.6,73.4,29.99,West,267,0.0,0.0,96,0.00,,,0.04,0,WeatherCatV1.20B785,2013-07-21 02:06:00,
2013-07-20 22:11:00,74.6,73.4,29.99,West,267,0.0,0.0,96,0.00,,,0.04,0,WeatherCatV1.20B785,2013-07-21 02:11:00,
2013-07-20 22:16:00,74.5,73.3,29.99,West,267,0.0,0.0,96,0.00,,,0.04,0,WeatherCatV1.20B785,2013-07-21 02:16:00,
2013-07-20 22:21:00,74.5,73.3,29.99,West,267,0.0,0.0,96,0.00,,,0.04,0,WeatherCatV1.20B785,2013-07-21 02:21:00,
2013-07-20 22:26:00,74.4,73.2,29.99,West,267,0.0,0.0,96,0.00,,,0.04,0,WeatherCatV1.20B785,2013-07-21 02:26:00,
2013-07-20 22:31:00,74.4,73.2,29.99,West,267,0.0,0.0,96,0.00,,,0.04,0,WeatherCatV1.20B785,2013-07-21 02:31:00,
2013-07-20 22:36:00,74.3,73.1,29.99,West,267,0.0,0.0,96,0.00,,,0.04,0,WeatherCatV1.20B785,2013-07-21 02:36:00,
2013-07-20 22:41:00,74.3,73.1,29.99,West,267,0.0,0.0,96,0.00,,,0.04,0,WeatherCatV1.20B785,2013-07-21 02:41:00,
2013-07-20 22:46:00,74.3,73.4,29.99,West,267,0.0,0.0,97,0.00,,,0.04,0,WeatherCatV1.20B785,2013-07-21 02:46:00,
2013-07-20 22:51:00,74.2,73.3,29.99,West,267,0.0,0.0,97,0.00,,,0.04,0,WeatherCatV1.20B785,2013-07-21 02:51:00,
2013-07-20 22:56:00,74.1,73.2,29.99,West,267,0.0,0.0,97,0.00,,,0.04,0,WeatherCatV1.20B785,2013-07-21 02:56:00,
2013-07-20 23:01:00,74.1,73.2,29.99,West,267,0.0,0.0,97,0.00,,,0.04,0,WeatherCatV1.20B785,2013-07-21 03:01:00,
2013-07-20 23:06:00,74.1,73.2,29.99,West,267,0.0,0.0,97,0.00,,,0.04,0,WeatherCatV1.20B785,2013-07-21 03:06:00,
2013-07-20 23:11:00,74.0,73.1,29.99,West,267,0.0,0.0,97,0.00,,,0.04,0,WeatherCatV1.20B785,2013-07-21 03:11:00,
2013-07-20 23:16:00,74.0,73.1,29.99,West,267,0.0,0.0,97,0.00,,,0.04,0,WeatherCatV1.20B785,2013-07-21 03:16:00,
2013-07-20 23:21:00,73.8,72.9,29.98,West,267,0.0,0.0,97,0.00,,,0.04,0,WeatherCatV1.20B785,2013-07-21 03:21:00,
2013-07-20 23:26:00,73.9,73.0,29.99,West,267,0.0,0.0,97,0.00,,,0.04,0,WeatherCatV1.20B785,2013-07-21 03:26:00,
2013-07-20 23:31:00,73.8,72.9,29.99,West,267,0.0,0.0,97,0.00,,,0.04,0,WeatherCatV1.20B785,2013-07-21 03:31:00,
2013-07-20 23:36:00,73.7,72.8,29.99,West,267,0.0,0.0,97,0.00,,,0.04,0,WeatherCatV1.20B785,2013-07-21 03:36:00,
2013-07-20 23:41:00,73.6,72.7,29.99,West,267,0.0,0.0,97,0.00,,,0.04,0,WeatherCatV1.20B785,2013-07-21 03:41:00,
2013-07-20 23:46:00,73.7,72.8,29.99,West,267,0.0,0.0,97,0.00,,,0.04,0,WeatherCatV1.20B785,2013-07-21 03:46:00,
2013-07-20 23:51:00,73.7,72.8,29.98,West,267,0.0,0.0,97,0.00,,,0.04,0,WeatherCatV1.20B785,2013-07-21 03:51:00,
2013-07-20 23:56:00,73.6,72.7,29.98,West,267,0.0,0.0,97,0.00,,,0.04,0,WeatherCatV1.20B785,2013-07-21 03:56:00,